Location: Moscow
(55.7500°N, 37.5830°E)
Time: 14:25:56
(UTC+03:00)

S-56A Canister/Altair - Pass Details

Date: 02 December 2021
Orbit: 633 x 2499 km, 38.9° (Epoch: 17 January)

Event Time Altitude Azimuth Distance (km) Brightness Sun altitude
Rises 03:23:07 0° 241° (WSW) 4,096 - -42.2°
Reaches altitude 10° 03:27:34 10° 220° (SW) 2,756 - -41.6°
Maximum altitude 03:30:55 15° 188° (S) 2,175 - -41.2°
Drops below altitude 10° 03:33:49 10° 154° (SSE) 2,305 - -40.8°
Exits shadow 03:37:00 - 130° (SE) 3,055 10.9 -40.4°
Sets 03:37:00 0° 130° (SE) 3,056 10.9 -40.4°
